owner,sensor,date,latitude,longitude,vertical_datum,sea_water_temperature,qcFlag 
DISL,ioos:station:DISL:DISL:1,2013-05-01T00:00:00Z,30.2513,-88.0778,-1.72,23.37,2 
DISL,ioos:station:DISL:DISL:1,2013-05-01T00:30:00Z,30.2513,-88.0778,-1.72,23.33,2 
DISL,ioos:station:DISL:DISL:1,2013-05-01T01:00:00Z,30.2513,-88.0778,-1.72,22.77,2 
DISL,ioos:station:DISL:DISL:1,2013-05-01T01:30:00Z,30.2513,-88.0778,-1.72,22.93,2 
DISL,ioos:station:DISL:DISL:1,2013-05-01T02:00:00Z,30.2513,-88.0778,-1.72,23.21,2 
DISL,ioos:station:DISL:DISL:1,2013-05-01T02:30:00Z,30.2513,-88.0778,-1.72,22.77,2 
DISL,ioos:station:DISL:DISL:1,2013-05-01T03:00:00Z,30.2513,-88.0778,-1.72,23.05,2 
DISL,ioos:station:DISL:DISL:1,2013-05-01T03:30:00Z,30.2513,-88.0778,-1.72,22.9,2 
DISL,ioos:station:DISL:DISL:1,2013-05-01T04:00:00Z,30.2513,-88.0778,-1.72,22.88,2 
DISL,ioos:station:DISL:DISL:1,2013-05-01T04:30:00Z,30.2513,-88.0778,-1.72,22.94,2 
DISL,ioos:station:DISL:DISL:1,2013-05-01T05:00:00Z,30.2513,-88.0778,-1.72,22.94,2 
DISL,ioos:station:DISL:DISL:1,2013-05-01T05:30:00Z,30.2513,-88.0778,-1.72,23.0,2 
DISL,ioos:station:DISL:DISL:1,2013-05-01T06:00:00Z,30.2513,-88.0778,-1.72,22.99,2 
DISL,ioos:station:DISL:DISL:1,2013-05-01T06:30:00Z,30.2513,-88.0778,-1.72,22.96,2 
DISL,ioos:station:DISL:DISL:1,2013-05-01T07:00:00Z,30.2513,-88.0778,-1.72,22.92,2 
DISL,ioos:station:DISL:DISL:1,2013-05-01T07:30:00Z,30.2513,-88.0778,-1.72,22.88,2 
DISL,ioos:station:DISL:DISL:1,2013-05-01T08:00:00Z,30.2513,-88.0778,-1.72,22.85,2 
DISL,ioos:station:DISL:DISL:1,2013-05-01T08:30:00Z,30.2513,-88.0778,-1.72,22.82,2 
DISL,ioos:station:DISL:DISL:1,2013-05-01T09:00:00Z,30.2513,-88.0778,-1.72,22.82,2 
DISL,ioos:station:DISL:DISL:1,2013-05-01T09:30:00Z,30.2513,-88.0778,-1.72,22.79,2 
DISL,ioos:station:DISL:DISL:1,2013-05-01T10:00:00Z,30.2513,-88.0778,-1.72,22.79,2 
DISL,ioos:station:DISL:DISL:1,2013-05-01T10:30:00Z,30.2513,-88.0778,-1.72,22.71,2 
DISL,ioos:station:DISL:DISL:1,2013-05-01T11:00:00Z,30.2513,-88.0778,-1.72,22.67,2 
DISL,ioos:station:DISL:DISL:1,2013-05-01T11:30:00Z,30.2513,-88.0778,-1.72,22.6,2 
DISL,ioos:station:DISL:DISL:1,2013-05-01T12:00:00Z,30.2513,-88.0778,-1.72,22.49,2 
DISL,ioos:station:DISL:DISL:1,2013-05-01T12:30:00Z,30.2513,-88.0778,-1.72,22.5,2 
DISL,ioos:station:DISL:DISL:1,2013-05-01T13:00:00Z,30.2513,-88.0778,-1.72,22.48,2 
DISL,ioos:station:DISL:DISL:1,2013-05-01T13:30:00Z,30.2513,-88.0778,-1.72,22.48,2 
DISL,ioos:station:DISL:DISL:1,2013-05-01T14:00:00Z,30.2513,-88.0778,-1.72,22.5,2 
DISL,ioos:station:DISL:DISL:1,2013-05-01T14:30:00Z,30.2513,-88.0778,-1.72,22.53,2 
DISL,ioos:station:DISL:DISL:1,2013-05-01T15:00:00Z,30.2513,-88.0778,-1.72,22.61,2 
DISL,ioos:station:DISL:DISL:1,2013-05-01T15:30:00Z,30.2513,-88.0778,-1.72,22.54,2 
DISL,ioos:station:DISL:DISL:1,2013-05-01T16:00:00Z,30.2513,-88.0778,-1.72,22.34,2 
DISL,ioos:station:DISL:DISL:1,2013-05-01T16:30:00Z,30.2513,-88.0778,-1.72,22.21,2 
DISL,ioos:station:DISL:DISL:1,2013-05-01T17:00:00Z,30.2513,-88.0778,-1.72,22.25,2 
DISL,ioos:station:DISL:DISL:1,2013-05-01T17:30:00Z,30.2513,-88.0778,-1.72,22.29,2 
DISL,ioos:station:DISL:DISL:1,2013-05-01T18:00:00Z,30.2513,-88.0778,-1.72,22.38,2 
DISL,ioos:station:DISL:DISL:1,2013-05-01T18:30:00Z,30.2513,-88.0778,-1.72,22.59,2 
DISL,ioos:station:DISL:DISL:1,2013-05-01T19:00:00Z,30.2513,-88.0778,-1.72,22.54,2 
DISL,ioos:station:DISL:DISL:1,2013-05-01T19:30:00Z,30.2513,-88.0778,-1.72,22.62,2 
DISL,ioos:station:DISL:DISL:1,2013-05-01T20:00:00Z,30.2513,-88.0778,-1.72,22.66,2 
DISL,ioos:station:DISL:DISL:1,2013-05-01T20:30:00Z,30.2513,-88.0778,-1.72,22.68,2 
DISL,ioos:station:DISL:DISL:1,2013-05-01T21:00:00Z,30.2513,-88.0778,-1.72,22.67,2 
DISL,ioos:station:DISL:DISL:1,2013-05-01T21:30:00Z,30.2513,-88.0778,-1.72,22.67,2 
DISL,ioos:station:DISL:DISL:1,2013-05-01T22:00:00Z,30.2513,-88.0778,-1.72,22.65,2 
DISL,ioos:station:DISL:DISL:1,2013-05-01T22:30:00Z,30.2513,-88.0778,-1.72,22.65,2 
DISL,ioos:station:DISL:DISL:1,2013-05-01T23:00:00Z,30.2513,-88.0778,-1.72,22.65,2 
DISL,ioos:station:DISL:DISL:1,2013-05-01T23:30:00Z,30.2513,-88.0778,-1.72,22.58,2 
DISL,ioos:station:DISL:DISL:1,2013-05-02T00:00:00Z,30.2513,-88.0778,-1.72,22.54,2 
DISL,ioos:station:DISL:DISL:1,2013-05-02T00:30:00Z,30.2513,-88.0778,-1.72,22.51,2 
DISL,ioos:station:DISL:DISL:1,2013-05-02T01:00:00Z,30.2513,-88.0778,-1.72,22.5,2 
DISL,ioos:station:DISL:DISL:1,2013-05-02T01:30:00Z,30.2513,-88.0778,-1.72,22.5,2 
DISL,ioos:station:DISL:DISL:1,2013-05-02T02:00:00Z,30.2513,-88.0778,-1.72,22.49,2 
DISL,ioos:station:DISL:DISL:1,2013-05-02T02:30:00Z,30.2513,-88.0778,-1.72,22.45,2 
DISL,ioos:station:DISL:DISL:1,2013-05-02T03:00:00Z,30.2513,-88.0778,-1.72,22.46,2 
DISL,ioos:station:DISL:DISL:1,2013-05-02T03:30:00Z,30.2513,-88.0778,-1.72,22.43,2 
DISL,ioos:station:DISL:DISL:1,2013-05-02T04:00:00Z,30.2513,-88.0778,-1.72,22.42,2 
DISL,ioos:station:DISL:DISL:1,2013-05-02T04:30:00Z,30.2513,-88.0778,-1.72,22.3,2 
DISL,ioos:station:DISL:DISL:1,2013-05-02T05:00:00Z,30.2513,-88.0778,-1.72,22.29,2 
DISL,ioos:station:DISL:DISL:1,2013-05-02T05:30:00Z,30.2513,-88.0778,-1.72,22.29,2 
DISL,ioos:station:DISL:DISL:1,2013-05-02T06:00:00Z,30.2513,-88.0778,-1.72,22.25,2 
DISL,ioos:station:DISL:DISL:1,2013-05-02T06:30:00Z,30.2513,-88.0778,-1.72,22.33,2 
DISL,ioos:station:DISL:DISL:1,2013-05-02T07:00:00Z,30.2513,-88.0778,-1.72,22.35,2 
DISL,ioos:station:DISL:DISL:1,2013-05-02T07:30:00Z,30.2513,-88.0778,-1.72,22.17,2 
DISL,ioos:station:DISL:DISL:1,2013-05-02T08:00:00Z,30.2513,-88.0778,-1.72,22.21,2 
DISL,ioos:station:DISL:DISL:1,2013-05-02T08:30:00Z,30.2513,-88.0778,-1.72,22.24,2 
DISL,ioos:station:DISL:DISL:1,2013-05-02T09:00:00Z,30.2513,-88.0778,-1.72,22.23,2 
DISL,ioos:station:DISL:DISL:1,2013-05-02T09:30:00Z,30.2513,-88.0778,-1.72,22.13,2 
DISL,ioos:station:DISL:DISL:1,2013-05-02T10:00:00Z,30.2513,-88.0778,-1.72,22.16,2 
DISL,ioos:station:DISL:DISL:1,2013-05-02T10:30:00Z,30.2513,-88.0778,-1.72,22.1,2 
DISL,ioos:station:DISL:DISL:1,2013-05-02T11:00:00Z,30.2513,-88.0778,-1.72,22.06,2 
DISL,ioos:station:DISL:DISL:1,2013-05-02T11:30:00Z,30.2513,-88.0778,-1.72,21.96,2 
DISL,ioos:station:DISL:DISL:1,2013-05-02T12:00:00Z,30.2513,-88.0778,-1.72,21.95,2 
DISL,ioos:station:DISL:DISL:1,2013-05-02T12:30:00Z,30.2513,-88.0778,-1.72,21.94,2 
DISL,ioos:station:DISL:DISL:1,2013-05-02T13:00:00Z,30.2513,-88.0778,-1.72,21.87,2 
DISL,ioos:station:DISL:DISL:1,2013-05-02T13:30:00Z,30.2513,-88.0778,-1.72,21.86,2 
DISL,ioos:station:DISL:DISL:1,2013-05-02T14:00:00Z,30.2513,-88.0778,-1.72,21.83,2 
DISL,ioos:station:DISL:DISL:1,2013-05-02T14:30:00Z,30.2513,-88.0778,-1.72,21.8,2 
DISL,ioos:station:DISL:DISL:1,2013-05-02T15:00:00Z,30.2513,-88.0778,-1.72,21.82,2 
DISL,ioos:station:DISL:DISL:1,2013-05-02T15:30:00Z,30.2513,-88.0778,-1.72,21.79,2 
DISL,ioos:station:DISL:DISL:1,2013-05-02T16:00:00Z,30.2513,-88.0778,-1.72,21.75,2 
DISL,ioos:station:DISL:DISL:1,2013-05-02T16:30:00Z,30.2513,-88.0778,-1.72,21.78,2 
DISL,ioos:station:DISL:DISL:1,2013-05-02T17:00:00Z,30.2513,-88.0778,-1.72,21.81,2 
DISL,ioos:station:DISL:DISL:1,2013-05-02T17:30:00Z,30.2513,-88.0778,-1.72,21.82,2 
DISL,ioos:station:DISL:DISL:1,2013-05-02T18:00:00Z,30.2513,-88.0778,-1.72,21.82,2 
DISL,ioos:station:DISL:DISL:1,2013-05-02T18:30:00Z,30.2513,-88.0778,-1.72,21.84,2 
DISL,ioos:station:DISL:DISL:1,2013-05-02T19:00:00Z,30.2513,-88.0778,-1.72,21.87,2 
DISL,ioos:station:DISL:DISL:1,2013-05-02T19:30:00Z,30.2513,-88.0778,-1.72,21.88,2 
DISL,ioos:station:DISL:DISL:1,2013-05-02T20:00:00Z,30.2513,-88.0778,-1.72,21.9,2 
DISL,ioos:station:DISL:DISL:1,2013-05-02T20:30:00Z,30.2513,-88.0778,-1.72,21.9,2 
DISL,ioos:station:DISL:DISL:1,2013-05-02T21:00:00Z,30.2513,-88.0778,-1.72,21.93,2 
DISL,ioos:station:DISL:DISL:1,2013-05-02T21:30:00Z,30.2513,-88.0778,-1.72,22.01,2 
DISL,ioos:station:DISL:DISL:1,2013-05-02T22:00:00Z,30.2513,-88.0778,-1.72,22.04,2 
DISL,ioos:station:DISL:DISL:1,2013-05-02T22:30:00Z,30.2513,-88.0778,-1.72,22.03,2 
DISL,ioos:station:DISL:DISL:1,2013-05-02T23:00:00Z,30.2513,-88.0778,-1.72,22.08,2 
DISL,ioos:station:DISL:DISL:1,2013-05-02T23:30:00Z,30.2513,-88.0778,-1.72,22.07,2 
DISL,ioos:station:DISL:DISL:1,2013-05-03T00:00:00Z,30.2513,-88.0778,-1.72,22.06,2 
DISL,ioos:station:DISL:DISL:1,2013-05-03T00:30:00Z,30.2513,-88.0778,-1.72,22.06,2 
DISL,ioos:station:DISL:DISL:1,2013-05-03T01:00:00Z,30.2513,-88.0778,-1.72,22.05,2 
DISL,ioos:station:DISL:DISL:1,2013-05-03T01:30:00Z,30.2513,-88.0778,-1.72,22.03,2 
DISL,ioos:station:DISL:DISL:1,2013-05-03T02:00:00Z,30.2513,-88.0778,-1.72,22.0,2 
DISL,ioos:station:DISL:DISL:1,2013-05-03T02:30:00Z,30.2513,-88.0778,-1.72,21.97,2 
DISL,ioos:station:DISL:DISL:1,2013-05-03T03:00:00Z,30.2513,-88.0778,-1.72,21.87,2 
DISL,ioos:station:DISL:DISL:1,2013-05-03T03:30:00Z,30.2513,-88.0778,-1.72,21.87,2 
DISL,ioos:station:DISL:DISL:1,2013-05-03T04:00:00Z,30.2513,-88.0778,-1.72,21.88,2 
DISL,ioos:station:DISL:DISL:1,2013-05-03T04:30:00Z,30.2513,-88.0778,-1.72,21.89,2 
DISL,ioos:station:DISL:DISL:1,2013-05-03T05:00:00Z,30.2513,-88.0778,-1.72,21.87,2 
DISL,ioos:station:DISL:DISL:1,2013-05-03T05:30:00Z,30.2513,-88.0778,-1.72,21.87,2 
DISL,ioos:station:DISL:DISL:1,2013-05-03T06:00:00Z,30.2513,-88.0778,-1.72,21.85,2 
DISL,ioos:station:DISL:DISL:1,2013-05-03T06:30:00Z,30.2513,-88.0778,-1.72,21.82,2 
DISL,ioos:station:DISL:DISL:1,2013-05-03T07:00:00Z,30.2513,-88.0778,-1.72,21.8,2 
DISL,ioos:station:DISL:DISL:1,2013-05-03T07:30:00Z,30.2513,-88.0778,-1.72,21.79,2 
DISL,ioos:station:DISL:DISL:1,2013-05-03T08:00:00Z,30.2513,-88.0778,-1.72,21.78,2 
DISL,ioos:station:DISL:DISL:1,2013-05-03T08:30:00Z,30.2513,-88.0778,-1.72,21.74,2 
DISL,ioos:station:DISL:DISL:1,2013-05-03T09:00:00Z,30.2513,-88.0778,-1.72,21.74,2 
DISL,ioos:station:DISL:DISL:1,2013-05-03T09:30:00Z,30.2513,-88.0778,-1.72,21.7,2 
DISL,ioos:station:DISL:DISL:1,2013-05-03T10:00:00Z,30.2513,-88.0778,-1.72,21.67,2 
DISL,ioos:station:DISL:DISL:1,2013-05-03T10:30:00Z,30.2513,-88.0778,-1.72,21.63,2 
DISL,ioos:station:DISL:DISL:1,2013-05-03T11:00:00Z,30.2513,-88.0778,-1.72,21.65,2 
DISL,ioos:station:DISL:DISL:1,2013-05-03T11:30:00Z,30.2513,-88.0778,-1.72,21.65,2 
DISL,ioos:station:DISL:DISL:1,2013-05-03T12:00:00Z,30.2513,-88.0778,-1.72,21.65,2 
DISL,ioos:station:DISL:DISL:1,2013-05-03T12:30:00Z,30.2513,-88.0778,-1.72,21.66,2 
DISL,ioos:station:DISL:DISL:1,2013-05-03T13:00:00Z,30.2513,-88.0778,-1.72,21.65,2 
DISL,ioos:station:DISL:DISL:1,2013-05-03T13:30:00Z,30.2513,-88.0778,-1.72,21.66,2 
DISL,ioos:station:DISL:DISL:1,2013-05-03T14:00:00Z,30.2513,-88.0778,-1.72,21.66,2 
DISL,ioos:station:DISL:DISL:1,2013-05-03T14:30:00Z,30.2513,-88.0778,-1.72,21.72,2 
DISL,ioos:station:DISL:DISL:1,2013-05-03T15:00:00Z,30.2513,-88.0778,-1.72,21.7,2 
DISL,ioos:station:DISL:DISL:1,2013-05-03T15:30:00Z,30.2513,-88.0778,-1.72,21.78,2 
DISL,ioos:station:DISL:DISL:1,2013-05-03T16:00:00Z,30.2513,-88.0778,-1.72,21.8,2 
DISL,ioos:station:DISL:DISL:1,2013-05-03T16:30:00Z,30.2513,-88.0778,-1.72,21.57,2 
DISL,ioos:station:DISL:DISL:1,2013-05-03T17:00:00Z,30.2513,-88.0778,-1.72,21.6,2 
DISL,ioos:station:DISL:DISL:1,2013-05-03T17:30:00Z,30.2513,-88.0778,-1.72,21.73,2 
DISL,ioos:station:DISL:DISL:1,2013-05-03T18:00:00Z,30.2513,-88.0778,-1.72,22.22,2 
DISL,ioos:station:DISL:DISL:1,2013-05-03T18:30:00Z,30.2513,-88.0778,-1.72,22.26,2 
DISL,ioos:station:DISL:DISL:1,2013-05-03T19:00:00Z,30.2513,-88.0778,-1.72,22.26,2 
DISL,ioos:station:DISL:DISL:1,2013-05-03T19:30:00Z,30.2513,-88.0778,-1.72,22.31,2 
DISL,ioos:station:DISL:DISL:1,2013-05-03T20:00:00Z,30.2513,-88.0778,-1.72,22.3,2 
DISL,ioos:station:DISL:DISL:1,2013-05-03T20:30:00Z,30.2513,-88.0778,-1.72,22.37,2 
DISL,ioos:station:DISL:DISL:1,2013-05-03T21:00:00Z,30.2513,-88.0778,-1.72,22.52,2 
DISL,ioos:station:DISL:DISL:1,2013-05-03T21:30:00Z,30.2513,-88.0778,-1.72,22.41,2 
DISL,ioos:station:DISL:DISL:1,2013-05-03T22:00:00Z,30.2513,-88.0778,-1.72,22.53,2 
DISL,ioos:station:DISL:DISL:1,2013-05-03T22:30:00Z,30.2513,-88.0778,-1.72,22.59,2 
DISL,ioos:station:DISL:DISL:1,2013-05-03T23:00:00Z,30.2513,-88.0778,-1.72,22.57,2 
DISL,ioos:station:DISL:DISL:1,2013-05-03T23:30:00Z,30.2513,-88.0778,-1.72,22.47,2 
DISL,ioos:station:DISL:DISL:1,2013-05-04T00:00:00Z,30.2513,-88.0778,-1.72,22.4,2 
DISL,ioos:station:DISL:DISL:1,2013-05-04T00:30:00Z,30.2513,-88.0778,-1.72,22.38,2 
DISL,ioos:station:DISL:DISL:1,2013-05-04T01:00:00Z,30.2513,-88.0778,-1.72,22.15,2 
DISL,ioos:station:DISL:DISL:1,2013-05-04T01:30:00Z,30.2513,-88.0778,-1.72,21.95,2 
DISL,ioos:station:DISL:DISL:1,2013-05-04T02:00:00Z,30.2513,-88.0778,-1.72,21.82,2 
DISL,ioos:station:DISL:DISL:1,2013-05-04T02:30:00Z,30.2513,-88.0778,-1.72,21.77,2 
DISL,ioos:station:DISL:DISL:1,2013-05-04T03:00:00Z,30.2513,-88.0778,-1.72,21.52,2 
DISL,ioos:station:DISL:DISL:1,2013-05-04T03:30:00Z,30.2513,-88.0778,-1.72,21.34,2 
DISL,ioos:station:DISL:DISL:1,2013-05-04T04:00:00Z,30.2513,-88.0778,-1.72,21.11,2 
DISL,ioos:station:DISL:DISL:1,2013-05-04T04:30:00Z,30.2513,-88.0778,-1.72,20.82,2 
DISL,ioos:station:DISL:DISL:1,2013-05-04T05:00:00Z,30.2513,-88.0778,-1.72,20.75,2 
DISL,ioos:station:DISL:DISL:1,2013-05-04T05:30:00Z,30.2513,-88.0778,-1.72,20.84,2 
DISL,ioos:station:DISL:DISL:1,2013-05-04T06:00:00Z,30.2513,-88.0778,-1.72,20.65,2 
DISL,ioos:station:DISL:DISL:1,2013-05-04T06:30:00Z,30.2513,-88.0778,-1.72,20.46,2 
DISL,ioos:station:DISL:DISL:1,2013-05-04T07:00:00Z,30.2513,-88.0778,-1.72,19.67,2 
DISL,ioos:station:DISL:DISL:1,2013-05-04T07:30:00Z,30.2513,-88.0778,-1.72,19.51,2 
DISL,ioos:station:DISL:DISL:1,2013-05-04T08:00:00Z,30.2513,-88.0778,-1.72,19.48,2 
DISL,ioos:station:DISL:DISL:1,2013-05-04T08:30:00Z,30.2513,-88.0778,-1.72,19.46,2 
DISL,ioos:station:DISL:DISL:1,2013-05-04T09:00:00Z,30.2513,-88.0778,-1.72,19.39,2 
DISL,ioos:station:DISL:DISL:1,2013-05-04T09:30:00Z,30.2513,-88.0778,-1.72,19.34,2 
DISL,ioos:station:DISL:DISL:1,2013-05-04T10:00:00Z,30.2513,-88.0778,-1.72,19.35,2 
DISL,ioos:station:DISL:DISL:1,2013-05-04T10:30:00Z,30.2513,-88.0778,-1.72,19.07,2 
DISL,ioos:station:DISL:DISL:1,2013-05-04T11:00:00Z,30.2513,-88.0778,-1.72,18.36,2 
DISL,ioos:station:DISL:DISL:1,2013-05-04T11:30:00Z,30.2513,-88.0778,-1.72,18.31,2 
DISL,ioos:station:DISL:DISL:1,2013-05-04T12:00:00Z,30.2513,-88.0778,-1.72,18.22,2 
DISL,ioos:station:DISL:DISL:1,2013-05-04T12:30:00Z,30.2513,-88.0778,-1.72,18.1,2 
DISL,ioos:station:DISL:DISL:1,2013-05-04T13:00:00Z,30.2513,-88.0778,-1.72,17.56,2 
DISL,ioos:station:DISL:DISL:1,2013-05-04T13:30:00Z,30.2513,-88.0778,-1.72,17.14,2 
DISL,ioos:station:DISL:DISL:1,2013-05-04T14:00:00Z,30.2513,-88.0778,-1.72,17.06,2 
DISL,ioos:station:DISL:DISL:1,2013-05-04T14:30:00Z,30.2513,-88.0778,-1.72,17.14,2 
DISL,ioos:station:DISL:DISL:1,2013-05-04T15:00:00Z,30.2513,-88.0778,-1.72,17.23,2 
DISL,ioos:station:DISL:DISL:1,2013-05-04T15:30:00Z,30.2513,-88.0778,-1.72,17.35,2 
DISL,ioos:station:DISL:DISL:1,2013-05-04T16:00:00Z,30.2513,-88.0778,-1.72,17.37,2 
DISL,ioos:station:DISL:DISL:1,2013-05-04T16:30:00Z,30.2513,-88.0778,-1.72,17.47,2 
DISL,ioos:station:DISL:DISL:1,2013-05-04T17:00:00Z,30.2513,-88.0778,-1.72,17.71,2 
DISL,ioos:station:DISL:DISL:1,2013-05-04T17:30:00Z,30.2513,-88.0778,-1.72,17.92,2 
DISL,ioos:station:DISL:DISL:1,2013-05-04T18:00:00Z,30.2513,-88.0778,-1.72,18.12,2 
DISL,ioos:station:DISL:DISL:1,2013-05-04T18:30:00Z,30.2513,-88.0778,-1.72,18.28,2 
DISL,ioos:station:DISL:DISL:1,2013-05-04T19:00:00Z,30.2513,-88.0778,-1.72,18.46,2 
DISL,ioos:station:DISL:DISL:1,2013-05-04T19:30:00Z,30.2513,-88.0778,-1.72,18.65,2 
DISL,ioos:station:DISL:DISL:1,2013-05-04T20:00:00Z,30.2513,-88.0778,-1.72,18.79,2 
DISL,ioos:station:DISL:DISL:1,2013-05-04T20:30:00Z,30.2513,-88.0778,-1.72,19.05,2 
DISL,ioos:station:DISL:DISL:1,2013-05-04T21:00:00Z,30.2513,-88.0778,-1.72,19.29,2 
DISL,ioos:station:DISL:DISL:1,2013-05-04T21:30:00Z,30.2513,-88.0778,-1.72,19.52,2 
DISL,ioos:station:DISL:DISL:1,2013-05-04T22:00:00Z,30.2513,-88.0778,-1.72,19.73,2 
DISL,ioos:station:DISL:DISL:1,2013-05-04T22:30:00Z,30.2513,-88.0778,-1.72,19.72,2 
DISL,ioos:station:DISL:DISL:1,2013-05-04T23:00:00Z,30.2513,-88.0778,-1.72,19.73,2 
DISL,ioos:station:DISL:DISL:1,2013-05-04T23:30:00Z,30.2513,-88.0778,-1.72,19.76,2 
DISL,ioos:station:DISL:DISL:1,2013-05-05T00:00:00Z,30.2513,-88.0778,-1.72,19.78,2 
DISL,ioos:station:DISL:DISL:1,2013-05-05T00:30:00Z,30.2513,-88.0778,-1.72,19.77,2 
DISL,ioos:station:DISL:DISL:1,2013-05-05T01:00:00Z,30.2513,-88.0778,-1.72,19.69,2 
DISL,ioos:station:DISL:DISL:1,2013-05-05T01:30:00Z,30.2513,-88.0778,-1.72,19.57,2 
DISL,ioos:station:DISL:DISL:1,2013-05-05T02:00:00Z,30.2513,-88.0778,-1.72,19.93,2 
DISL,ioos:station:DISL:DISL:1,2013-05-05T02:30:00Z,30.2513,-88.0778,-1.72,19.39,2 
DISL,ioos:station:DISL:DISL:1,2013-05-05T03:00:00Z,30.2513,-88.0778,-1.72,19.28,2 
DISL,ioos:station:DISL:DISL:1,2013-05-05T03:30:00Z,30.2513,-88.0778,-1.72,19.27,2 
DISL,ioos:station:DISL:DISL:1,2013-05-05T04:00:00Z,30.2513,-88.0778,-1.72,19.23,2 
DISL,ioos:station:DISL:DISL:1,2013-05-05T04:30:00Z,30.2513,-88.0778,-1.72,19.2,2 
DISL,ioos:station:DISL:DISL:1,2013-05-05T05:00:00Z,30.2513,-88.0778,-1.72,19.13,2 
DISL,ioos:station:DISL:DISL:1,2013-05-05T05:30:00Z,30.2513,-88.0778,-1.72,19.03,2 
DISL,ioos:station:DISL:DISL:1,2013-05-05T06:00:00Z,30.2513,-88.0778,-1.72,18.99,2 
DISL,ioos:station:DISL:DISL:1,2013-05-05T06:30:00Z,30.2513,-88.0778,-1.72,18.89,2 
DISL,ioos:station:DISL:DISL:1,2013-05-05T07:00:00Z,30.2513,-88.0778,-1.72,18.76,2 
DISL,ioos:station:DISL:DISL:1,2013-05-05T07:30:00Z,30.2513,-88.0778,-1.72,18.75,2 
DISL,ioos:station:DISL:DISL:1,2013-05-05T08:00:00Z,30.2513,-88.0778,-1.72,18.69,2 
DISL,ioos:station:DISL:DISL:1,2013-05-05T08:30:00Z,30.2513,-88.0778,-1.72,18.65,2 
DISL,ioos:station:DISL:DISL:1,2013-05-05T09:00:00Z,30.2513,-88.0778,-1.72,18.61,2 
DISL,ioos:station:DISL:DISL:1,2013-05-05T09:30:00Z,30.2513,-88.0778,-1.72,18.58,2 
DISL,ioos:station:DISL:DISL:1,2013-05-05T10:00:00Z,30.2513,-88.0778,-1.72,18.54,2 
DISL,ioos:station:DISL:DISL:1,2013-05-05T10:30:00Z,30.2513,-88.0778,-1.72,18.51,2 
DISL,ioos:station:DISL:DISL:1,2013-05-05T11:00:00Z,30.2513,-88.0778,-1.72,18.47,2 
DISL,ioos:station:DISL:DISL:1,2013-05-05T11:30:00Z,30.2513,-88.0778,-1.72,18.44,2 
DISL,ioos:station:DISL:DISL:1,2013-05-05T12:00:00Z,30.2513,-88.0778,-1.72,18.43,2 
DISL,ioos:station:DISL:DISL:1,2013-05-05T12:30:00Z,30.2513,-88.0778,-1.72,18.4,2 
DISL,ioos:station:DISL:DISL:1,2013-05-05T13:00:00Z,30.2513,-88.0778,-1.72,18.35,2 
DISL,ioos:station:DISL:DISL:1,2013-05-05T13:30:00Z,30.2513,-88.0778,-1.72,18.32,2 
DISL,ioos:station:DISL:DISL:1,2013-05-05T14:00:00Z,30.2513,-88.0778,-1.72,18.32,2 
DISL,ioos:station:DISL:DISL:1,2013-05-05T14:30:00Z,30.2513,-88.0778,-1.72,18.36,2 
DISL,ioos:station:DISL:DISL:1,2013-05-05T15:00:00Z,30.2513,-88.0778,-1.72,18.39,2 
DISL,ioos:station:DISL:DISL:1,2013-05-05T15:30:00Z,30.2513,-88.0778,-1.72,18.47,2 
DISL,ioos:station:DISL:DISL:1,2013-05-05T16:00:00Z,30.2513,-88.0778,-1.72,18.6,2 
DISL,ioos:station:DISL:DISL:1,2013-05-05T16:30:00Z,30.2513,-88.0778,-1.72,18.7,2 
DISL,ioos:station:DISL:DISL:1,2013-05-05T17:00:00Z,30.2513,-88.0778,-1.72,18.87,2 
DISL,ioos:station:DISL:DISL:1,2013-05-05T17:30:00Z,30.2513,-88.0778,-1.72,19.05,2 
DISL,ioos:station:DISL:DISL:1,2013-05-05T18:00:00Z,30.2513,-88.0778,-1.72,19.2,2 
DISL,ioos:station:DISL:DISL:1,2013-05-05T18:30:00Z,30.2513,-88.0778,-1.72,19.42,2 
DISL,ioos:station:DISL:DISL:1,2013-05-05T19:00:00Z,30.2513,-88.0778,-1.72,19.63,2 
DISL,ioos:station:DISL:DISL:1,2013-05-05T19:30:00Z,30.2513,-88.0778,-1.72,19.73,2 
DISL,ioos:station:DISL:DISL:1,2013-05-05T20:00:00Z,30.2513,-88.0778,-1.72,19.94,2 
DISL,ioos:station:DISL:DISL:1,2013-05-05T20:30:00Z,30.2513,-88.0778,-1.72,20.03,2 
DISL,ioos:station:DISL:DISL:1,2013-05-05T21:00:00Z,30.2513,-88.0778,-1.72,20.16,2 
DISL,ioos:station:DISL:DISL:1,2013-05-05T21:30:00Z,30.2513,-88.0778,-1.72,20.2,2 
DISL,ioos:station:DISL:DISL:1,2013-05-05T22:00:00Z,30.2513,-88.0778,-1.72,20.24,2 
DISL,ioos:station:DISL:DISL:1,2013-05-05T22:30:00Z,30.2513,-88.0778,-1.72,20.22,2 
DISL,ioos:station:DISL:DISL:1,2013-05-05T23:00:00Z,30.2513,-88.0778,-1.72,20.26,2 
DISL,ioos:station:DISL:DISL:1,2013-05-05T23:30:00Z,30.2513,-88.0778,-1.72,20.04,2 
DISL,ioos:station:DISL:DISL:1,2013-05-06T00:00:00Z,30.2513,-88.0778,-1.72,19.86,2 
DISL,ioos:station:DISL:DISL:1,2013-05-06T00:30:00Z,30.2513,-88.0778,-1.72,19.68,2 
DISL,ioos:station:DISL:DISL:1,2013-05-06T01:00:00Z,30.2513,-88.0778,-1.72,19.5,2 
DISL,ioos:station:DISL:DISL:1,2013-05-06T01:30:00Z,30.2513,-88.0778,-1.72,19.44,2 
DISL,ioos:station:DISL:DISL:1,2013-05-06T02:00:00Z,30.2513,-88.0778,-1.72,19.39,2 
DISL,ioos:station:DISL:DISL:1,2013-05-06T02:30:00Z,30.2513,-88.0778,-1.72,19.53,2 
DISL,ioos:station:DISL:DISL:1,2013-05-06T03:00:00Z,30.2513,-88.0778,-1.72,19.53,2 
DISL,ioos:station:DISL:DISL:1,2013-05-06T03:30:00Z,30.2513,-88.0778,-1.72,19.48,2 
DISL,ioos:station:DISL:DISL:1,2013-05-06T04:00:00Z,30.2513,-88.0778,-1.72,19.3,2 
DISL,ioos:station:DISL:DISL:1,2013-05-06T04:30:00Z,30.2513,-88.0778,-1.72,19.1,2 
DISL,ioos:station:DISL:DISL:1,2013-05-06T05:00:00Z,30.2513,-88.0778,-1.72,18.72,2 
DISL,ioos:station:DISL:DISL:1,2013-05-06T05:30:00Z,30.2513,-88.0778,-1.72,18.35,2 
DISL,ioos:station:DISL:DISL:1,2013-05-06T06:00:00Z,30.2513,-88.0778,-1.72,18.16,2 
DISL,ioos:station:DISL:DISL:1,2013-05-06T06:30:00Z,30.2513,-88.0778,-1.72,17.98,2 
DISL,ioos:station:DISL:DISL:1,2013-05-06T07:00:00Z,30.2513,-88.0778,-1.72,17.82,2 
DISL,ioos:station:DISL:DISL:1,2013-05-06T07:30:00Z,30.2513,-88.0778,-1.72,17.72,2 
DISL,ioos:station:DISL:DISL:1,2013-05-06T08:00:00Z,30.2513,-88.0778,-1.72,17.68,2 
DISL,ioos:station:DISL:DISL:1,2013-05-06T08:30:00Z,30.2513,-88.0778,-1.72,17.6,2 
DISL,ioos:station:DISL:DISL:1,2013-05-06T09:00:00Z,30.2513,-88.0778,-1.72,17.54,2 
DISL,ioos:station:DISL:DISL:1,2013-05-06T09:30:00Z,30.2513,-88.0778,-1.72,17.94,2 
DISL,ioos:station:DISL:DISL:1,2013-05-06T10:00:00Z,30.2513,-88.0778,-1.72,18.58,2 
DISL,ioos:station:DISL:DISL:1,2013-05-06T10:30:00Z,30.2513,-88.0778,-1.72,18.87,2 
DISL,ioos:station:DISL:DISL:1,2013-05-06T11:00:00Z,30.2513,-88.0778,-1.72,18.46,2 
DISL,ioos:station:DISL:DISL:1,2013-05-06T11:30:00Z,30.2513,-88.0778,-1.72,17.76,2 
DISL,ioos:station:DISL:DISL:1,2013-05-06T12:00:00Z,30.2513,-88.0778,-1.72,18.56,2 
DISL,ioos:station:DISL:DISL:1,2013-05-06T12:30:00Z,30.2513,-88.0778,-1.72,18.74,2 
DISL,ioos:station:DISL:DISL:1,2013-05-06T13:00:00Z,30.2513,-88.0778,-1.72,18.26,2 
DISL,ioos:station:DISL:DISL:1,2013-05-06T13:30:00Z,30.2513,-88.0778,-1.72,18.16,2 
DISL,ioos:station:DISL:DISL:1,2013-05-06T14:00:00Z,30.2513,-88.0778,-1.72,17.36,2 
DISL,ioos:station:DISL:DISL:1,2013-05-06T14:30:00Z,30.2513,-88.0778,-1.72,17.24,2 
DISL,ioos:station:DISL:DISL:1,2013-05-06T15:00:00Z,30.2513,-88.0778,-1.72,17.3,2 
DISL,ioos:station:DISL:DISL:1,2013-05-06T15:30:00Z,30.2513,-88.0778,-1.72,17.43,2 
DISL,ioos:station:DISL:DISL:1,2013-05-06T16:00:00Z,30.2513,-88.0778,-1.72,17.59,2 
DISL,ioos:station:DISL:DISL:1,2013-05-06T16:30:00Z,30.2513,-88.0778,-1.72,17.74,2 
DISL,ioos:station:DISL:DISL:1,2013-05-06T17:00:00Z,30.2513,-88.0778,-1.72,17.95,2 
DISL,ioos:station:DISL:DISL:1,2013-05-06T17:30:00Z,30.2513,-88.0778,-1.72,18.14,2 
DISL,ioos:station:DISL:DISL:1,2013-05-06T18:00:00Z,30.2513,-88.0778,-1.72,18.37,2 
DISL,ioos:station:DISL:DISL:1,2013-05-06T18:30:00Z,30.2513,-88.0778,-1.72,18.63,2 
DISL,ioos:station:DISL:DISL:1,2013-05-06T19:00:00Z,30.2513,-88.0778,-1.72,18.87,2 
DISL,ioos:station:DISL:DISL:1,2013-05-06T19:30:00Z,30.2513,-88.0778,-1.72,19.04,2 
DISL,ioos:station:DISL:DISL:1,2013-05-06T20:00:00Z,30.2513,-88.0778,-1.72,19.35,2 
DISL,ioos:station:DISL:DISL:1,2013-05-06T20:30:00Z,30.2513,-88.0778,-1.72,19.46,2 
DISL,ioos:station:DISL:DISL:1,2013-05-06T21:00:00Z,30.2513,-88.0778,-1.72,19.61,2 
DISL,ioos:station:DISL:DISL:1,2013-05-06T21:30:00Z,30.2513,-88.0778,-1.72,19.72,2 
DISL,ioos:station:DISL:DISL:1,2013-05-06T22:00:00Z,30.2513,-88.0778,-1.72,19.81,2 
DISL,ioos:station:DISL:DISL:1,2013-05-06T22:30:00Z,30.2513,-88.0778,-1.72,19.87,2 
DISL,ioos:station:DISL:DISL:1,2013-05-06T23:00:00Z,30.2513,-88.0778,-1.72,19.96,2 
DISL,ioos:station:DISL:DISL:1,2013-05-06T23:30:00Z,30.2513,-88.0778,-1.72,19.9,2 